Location: Unspecified
(39.0670°S, 0.0000°E)
Time: 11:08:44
(UTC+00:00)

ISS - Pass Details

Date: 24 June 2019
Orbit: 409 x 418 km, 51.6° (Epoch: 17 July)

Event Time Altitude Azimuth Distance (km) Brightness Sun altitude
Rises 19:23:44 0° 271° (W) 2,386 1.3 -29.8°
Reaches altitude 10° 19:26:13 10° 253° (WSW) 1,526 -0.2 -30.3°
Enters shadow 19:26:44 13° 247° (WSW) 1,381 -0.5 -30.4°
